Back to Top

Language: 

My Weather Underground Personal Weather Station Historical Data with Graphs...

Delerius Weather Station Historical Data
Daily Summary for August 1, 2017 Units:  Metric    English   Both
« Previous Day
Next Day »
Daily Weekly Monthly Yearly Custom
  High: Low: Average:
Temperature: 18.7 °C 11.4 °C 15.3 °C
Dew Point: 15.3 °C 9.7 °C 11.9 °C
Humidity: 90 % 67 % 81 %
Wind Speed: 20.9 km/h 0 km/h 8.9 km/h
Wind Gust: 38.6 km/h - -
Wind:- - SW
Pressure: 1012.4 hPa 1010 hPa -
Precipitation: 1.02 mm    
Historical Graphs
 
 
Tabular Data for August 1, 2017
Time Temperature Dew Point Pressure Wind Wind Speed Wind Gust Humidity Rainfall Rate (Hourly) solar Conditions
00:01 14.8 °C 10.6 °C 1010.4 hPa SW 8 km/h 12.9 km/h 76 % 0 mm 0 W/m2
00:06 14.7 °C 10.5 °C 1010.7 hPa SW 8 km/h 12.9 km/h 76 % 0 mm 0 W/m2
00:11 14.6 °C 10.4 °C 1010.7 hPa WSW 8 km/h 14.5 km/h 76 % 0 mm 0 W/m2
00:17 14.5 °C 10.3 °C 1010.7 hPa WSW 8 km/h 14.5 km/h 76 % 0 mm 0 W/m2
00:22 14.4 °C 10.2 °C 1010.7 hPa WSW 6.4 km/h 11.3 km/h 76 % 0 mm 0 W/m2
00:27 14.4 °C 10.4 °C 1010.4 hPa WSW 6.4 km/h 14.5 km/h 77 % 0 mm 0 W/m2
00:32 14.4 °C 10.4 °C 1010.4 hPa WSW 4.8 km/h 14.5 km/h 77 % 0 mm 0 W/m2
00:37 14.3 °C 10.3 °C 1010.4 hPa West 3.2 km/h 9.7 km/h 77 % 0 mm 0 W/m2
00:42 14.2 °C 10.4 °C 1010.4 hPa West 1.6 km/h 6.4 km/h 78 % 0 mm 0 W/m2
00:47 14.1 °C 10.3 °C 1010.7 hPa West 1.6 km/h 6.4 km/h 78 % 0 mm 0 W/m2
00:52 14 °C 10.2 °C 1010.7 hPa Calm   6.4 km/h 78 % 0 mm 0 W/m2
00:57 13.9 °C 10.3 °C 1010.4 hPa Calm   3.2 km/h 79 % 0 mm 0 W/m2
01:02 13.8 °C 10.2 °C 1010.4 hPa Calm     79 % 0 mm 0 W/m2
01:03 13.7 °C 10.3 °C 1010.4 hPa Calm     80 % 0 mm 0 W/m2
01:07 13.6 °C 10.2 °C 1010.4 hPa Calm     80 % 0 mm 0 W/m2
01:12 13.4 °C 10.2 °C 1010.4 hPa Calm   3.2 km/h 81 % 0 mm 0 W/m2
01:17 13.3 °C 10.3 °C 1010.4 hPa SW 1.6 km/h 9.7 km/h 82 % 0 mm 0 W/m2
01:22 13.2 °C 10.4 °C 1010.4 hPa SSW 3.2 km/h 9.7 km/h 83 % 0 mm 0 W/m2
01:27 13.2 °C 10.4 °C 1010.4 hPa South 3.2 km/h 9.7 km/h 83 % 0 mm 0 W/m2
01:32 13.2 °C 10.4 °C 1010.4 hPa South 3.2 km/h 11.3 km/h 83 % 0 mm 0 W/m2
01:37 13.2 °C 10.6 °C 1010.4 hPa South 4.8 km/h 11.3 km/h 84 % 0 mm 0 W/m2
01:42 13.2 °C 10.7 °C 1010.4 hPa SSW 6.4 km/h 12.9 km/h 85 % 0 mm 0 W/m2
01:47 13.3 °C 10.8 °C 1010.4 hPa SSW 6.4 km/h 12.9 km/h 85 % 0 mm 0 W/m2
01:52 13.2 °C 10.7 °C 1010.4 hPa SSW 4.8 km/h 11.3 km/h 85 % 0 mm 0 W/m2
01:57 13.2 °C 10.7 °C 1010.4 hPa SSW 4.8 km/h 9.7 km/h 85 % 0 mm 0 W/m2
02:02 13.2 °C 10.7 °C 1010.4 hPa SSW 6.4 km/h 12.9 km/h 85 % 0 mm 0 W/m2
02:07 13.1 °C 10.6 °C 1010.4 hPa SSW 8 km/h 12.9 km/h 85 % 0 mm 0 W/m2
02:12 13.1 °C 10.6 °C 1010.4 hPa SW 8 km/h 12.9 km/h 85 % 0 mm 0 W/m2
02:17 13 °C 10.6 °C 1010.4 hPa SW 8 km/h 12.9 km/h 85 % 0 mm 0 W/m2
02:22 12.9 °C 10.6 °C 1010.4 hPa SW 8 km/h 12.9 km/h 86 % 0 mm 0 W/m2
02:27 12.8 °C 10.5 °C 1010.4 hPa SW 8 km/h 12.9 km/h 86 % 0 mm 0 W/m2
02:32 12.8 °C 10.5 °C 1010.4 hPa SW 8 km/h 11.3 km/h 86 % 0 mm 0 W/m2
02:37 12.7 °C 10.4 °C 1010.4 hPa SW 6.4 km/h 11.3 km/h 86 % 0 mm 0 W/m2
02:42 12.7 °C 10.4 °C 1010.4 hPa SW 4.8 km/h 9.7 km/h 86 % 0 mm 0 W/m2
02:47 12.6 °C 10.3 °C 1010.4 hPa WSW 3.2 km/h 9.7 km/h 86 % 0 mm 0 W/m2
02:52 12.5 °C 10.2 °C 1010.4 hPa SW 3.2 km/h 8 km/h 86 % 0 mm 0 W/m2
02:57 12.4 °C 10.3 °C 1010.4 hPa WSW 1.6 km/h 6.4 km/h 87 % 0 mm 0 W/m2
03:02 12.3 °C 10.2 °C 1010.4 hPa Calm   4.8 km/h 87 % 0 mm 0 W/m2
03:07 12.2 °C 10.3 °C 1010.4 hPa SW 1.6 km/h 8 km/h 88 % 0 mm 0 W/m2
03:12 12.1 °C 10.2 °C 1010.4 hPa SSW 3.2 km/h 11.3 km/h 88 % 0 mm 0 W/m2
03:17 12.2 °C 10.4 °C 1010.4 hPa SSW 4.8 km/h 11.3 km/h 89 % 0 mm 0 W/m2
03:22 12.1 °C 10.3 °C 1010.4 hPa SSW 4.8 km/h 11.3 km/h 89 % 0 mm 0 W/m2
03:27 12.1 °C 10.3 °C 1010.4 hPa SSW 3.2 km/h 12.9 km/h 89 % 0 mm 0 W/m2
03:32 12.1 °C 10.3 °C 1010.4 hPa SSW 3.2 km/h 12.9 km/h 89 % 0 mm 0 W/m2
03:37 12.1 °C 10.2 °C 1010.4 hPa SSW 1.6 km/h 8 km/h 88 % 0 mm 0 W/m2
03:42 11.9 °C 10 °C 1010.4 hPa Calm   6.4 km/h 88 % 0 mm 0 W/m2
03:47 11.8 °C 9.9 °C 1010.4 hPa SW 1.6 km/h 6.4 km/h 88 % 0 mm 0 W/m2
03:52 11.8 °C 10.1 °C 1010.4 hPa SW 1.6 km/h 8 km/h 89 % 0 mm 0 W/m2
03:57 11.8 °C 10.1 °C 1010 hPa SW 1.6 km/h 8 km/h 89 % 0 mm 0 W/m2
04:02 11.7 °C 9.8 °C 1010 hPa Calm   3.2 km/h 88 % 0 mm 0 W/m2
04:07 11.6 °C 9.7 °C 1010 hPa Calm   3.2 km/h 88 % 0 mm 0 W/m2
04:08 11.6 °C 9.7 °C 1010 hPa Calm   3.2 km/h 88 % 0 mm 0 W/m2
04:13 11.6 °C 9.8 °C 1010 hPa Calm   6.4 km/h 89 % 0 mm 0 W/m2
04:18 11.6 °C 9.8 °C 1010.4 hPa Calm   6.4 km/h 89 % 0 mm 0 W/m2
04:23 11.6 °C 9.7 °C 1010.4 hPa Calm   6.4 km/h 88 % 0 mm 0 W/m2
04:28 11.6 °C 9.8 °C 1010.4 hPa ENE 3.2 km/h 9.7 km/h 89 % 0 mm 0 W/m2
04:33 11.5 °C 9.7 °C 1010.4 hPa ENE 3.2 km/h 9.7 km/h 89 % 0 mm 0 W/m2
04:38 11.5 °C 9.7 °C 1010.4 hPa Calm   4.8 km/h 89 % 0 mm 0 W/m2
04:43 11.4 °C 9.7 °C 1010.4 hPa Calm   6.4 km/h 89 % 0 mm 0 W/m2
04:48 11.5 °C 9.7 °C 1010.4 hPa Calm   6.4 km/h 89 % 0 mm 0 W/m2
04:53 11.4 °C 9.7 °C 1010.4 hPa Calm   6.4 km/h 89 % 0 mm 0 W/m2
04:58 11.5 °C 9.7 °C 1010.4 hPa Calm   8 km/h 89 % 0 mm 0 W/m2
05:03 11.5 °C 9.7 °C 1010.4 hPa Calm   8 km/h 89 % 0 mm 0 W/m2
05:08 11.4 °C 9.7 °C 1010.4 hPa Calm   1.6 km/h 89 % 0 mm 0 W/m2
05:13 11.4 °C 9.7 °C 1010.4 hPa Calm   3.2 km/h 89 % 0 mm 0 W/m2
05:18 11.5 °C 9.7 °C 1010.4 hPa South 1.6 km/h 9.7 km/h 89 % 0 mm 0 W/m2
05:23 11.6 °C 9.8 °C 1010.4 hPa South 1.6 km/h 9.7 km/h 89 % 0 mm 5 W/m2
05:28 11.7 °C 9.8 °C 1010.4 hPa Calm   3.2 km/h 88 % 0 mm 5 W/m2
05:33 11.6 °C 9.7 °C 1010.4 hPa Calm     88 % 0 mm 7 W/m2
05:38 11.6 °C 9.8 °C 1010.4 hPa SSW 1.6 km/h 6.4 km/h 89 % 0 mm 9 W/m2
05:43 11.7 °C 9.9 °C 1010.4 hPa SSW 1.6 km/h 6.4 km/h 89 % 0 mm 11 W/m2
05:48 11.8 °C 10.1 °C 1010.4 hPa SSW 1.6 km/h 8 km/h 89 % 0 mm 12 W/m2
05:49 11.8 °C 10.2 °C 1010.4 hPa SSW 1.6 km/h 8 km/h 90 % 0 mm 12 W/m2
05:54 11.8 °C 10.1 °C 1010.4 hPa SSW 1.6 km/h 8 km/h 89 % 0 mm 16 W/m2
05:59 11.8 °C 10.1 °C 1010.4 hPa Calm   3.2 km/h 89 % 0 mm 21 W/m2
06:05 11.8 °C 10.1 °C 1010.4 hPa Calm   1.6 km/h 89 % 0 mm 37 W/m2
06:10 11.8 °C 10.1 °C 1010.4 hPa Calm   6.4 km/h 89 % 0 mm 47 W/m2
06:15 11.9 °C 10.3 °C 1010.4 hPa SSW 1.6 km/h 6.4 km/h 90 % 0 mm 47 W/m2
06:20 12 °C 10.4 °C 1010.4 hPa SSW 1.6 km/h 8 km/h 90 % 0 mm 47 W/m2
06:25 12.1 °C 10.5 °C 1010.4 hPa SSW 3.2 km/h 8 km/h 90 % 0 mm 100 W/m2
06:30 12.3 °C 10.7 °C 1010 hPa SSW 1.6 km/h 9.7 km/h 90 % 0 mm 76 W/m2
06:35 12.6 °C 11 °C 1010 hPa South 3.2 km/h 9.7 km/h 90 % 0 mm 84 W/m2
06:40 12.9 °C 11.1 °C 1010 hPa SSW 6.4 km/h 17.7 km/h 89 % 0 mm 158 W/m2
06:45 13.2 °C 11.1 °C 1010 hPa SW 9.7 km/h 17.7 km/h 87 % 0 mm 142 W/m2
06:50 13.6 °C 11.3 °C 1010 hPa SW 11.3 km/h 22.5 km/h 86 % 0 mm 116 W/m2
06:55 13.9 °C 11.4 °C 1010.4 hPa SW 12.9 km/h 29 km/h 85 % 0 mm 100 W/m2
07:00 14.1 °C 11.3 °C 1010.4 hPa SW 14.5 km/h 32.2 km/h 83 % 0 mm 90 W/m2
07:05 14.3 °C 11.4 °C 1010.4 hPa SW 14.5 km/h 32.2 km/h 83 % 0 mm 102 W/m2
07:10 14.3 °C 11.3 °C 1010.4 hPa SW 12.9 km/h 20.9 km/h 82 % 0 mm 111 W/m2
07:15 14.4 °C 11.2 °C 1010.4 hPa SW 14.5 km/h 24.1 km/h 81 % 0 mm 125 W/m2
07:20 14.5 °C 11.3 °C 1010.4 hPa SW 16.1 km/h 24.1 km/h 81 % 0 mm 299 W/m2
07:25 14.7 °C 11.4 °C 1010.4 hPa SW 14.5 km/h 25.7 km/h 81 % 0 mm 174 W/m2
07:30 14.8 °C 11.4 °C 1010.7 hPa SW 14.5 km/h 25.7 km/h 80 % 0 mm 304 W/m2
07:35 14.9 °C 11.5 °C 1010.7 hPa SW 16.1 km/h 25.7 km/h 80 % 0 mm 332 W/m2
07:40 15 °C 11.4 °C 1010.7 hPa SW 16.1 km/h 30.6 km/h 79 % 0 mm 156 W/m2
07:45 15.1 °C 11.5 °C 1010.7 hPa SW 16.1 km/h 30.6 km/h 79 % 0 mm 362 W/m2
07:50 15.2 °C 11.4 °C 1010.7 hPa SW 16.1 km/h 25.7 km/h 78 % 0 mm 366 W/m2
07:55 15.6 °C 11.8 °C 1010.7 hPa SW 14.5 km/h 25.7 km/h 78 % 0 mm 459 W/m2
08:00 15.8 °C 11.6 °C 1010.7 hPa SW 16.1 km/h 30.6 km/h 76 % 0 mm 366 W/m2
08:05 15.8 °C 11.2 °C 1011.1 hPa SW 17.7 km/h 30.6 km/h 74 % 0 mm 257 W/m2
08:06 15.8 °C 11.2 °C 1010.7 hPa SW 17.7 km/h 30.6 km/h 74 % 0 mm 241 W/m2
08:11 15.9 °C 11.3 °C 1011.1 hPa SW 17.7 km/h 29 km/h 74 % 0 mm 186 W/m2
08:16 15.8 °C 11.2 °C 1011.1 hPa SW 14.5 km/h 25.7 km/h 74 % 0 mm 139 W/m2
08:21 15.8 °C 11.2 °C 1011.1 hPa SW 12.9 km/h 20.9 km/h 74 % 0 mm 149 W/m2
08:26 15.8 °C 11.2 °C 1011.1 hPa WSW 11.3 km/h 22.5 km/h 74 % 0 mm 148 W/m2
08:31 15.8 °C 11.2 °C 1011.1 hPa SW 11.3 km/h 22.5 km/h 74 % 0 mm 162 W/m2
08:36 15.8 °C 11.4 °C 1011.1 hPa SW 8 km/h 16.1 km/h 75 % 0 mm 158 W/m2
08:41 15.8 °C 11.6 °C 1011.1 hPa SSW 8 km/h 17.7 km/h 76 % 0 mm 176 W/m2
08:46 15.8 °C 11.6 °C 1011.1 hPa SSW 9.7 km/h 17.7 km/h 76 % 0 mm 193 W/m2
08:51 15.8 °C 11.6 °C 1011.1 hPa SSW 9.7 km/h 19.3 km/h 76 % 0 mm 192 W/m2
08:56 15.9 °C 11.7 °C 1011.1 hPa SSW 11.3 km/h 19.3 km/h 76 % 0 mm 209 W/m2
09:01 15.9 °C 11.9 °C 1011.1 hPa SSW 11.3 km/h 17.7 km/h 77 % 0 mm 241 W/m2
09:06 15.9 °C 11.7 °C 1011.1 hPa SW 12.9 km/h 20.9 km/h 76 % 0 mm 250 W/m2
09:12 16 °C 11.8 °C 1011.1 hPa SSW 14.5 km/h 20.9 km/h 76 % 0 mm 287 W/m2
09:17 16.1 °C 11.7 °C 1011.1 hPa SSW 16.1 km/h 24.1 km/h 75 % 0 mm 214 W/m2
09:22 16.2 °C 11.8 °C 1011.1 hPa SW 14.5 km/h 24.1 km/h 75 % 0 mm 274 W/m2
09:27 16.2 °C 11.9 °C 1011.1 hPa SSW 12.9 km/h 22.5 km/h 76 % 0 mm 216 W/m2
09:32 16.3 °C 11.8 °C 1011.1 hPa SSW 14.5 km/h 24.1 km/h 75 % 0 mm 272 W/m2
09:37 16.4 °C 11.9 °C 1011.1 hPa SW 14.5 km/h 24.1 km/h 75 % 0 mm 408 W/m2
09:42 16.7 °C 12.4 °C 1011.1 hPa SW 14.5 km/h 37 km/h 76 % 0 mm 424 W/m2
09:47 16.8 °C 11.9 °C 1011.1 hPa SW 16.1 km/h 37 km/h 73 % 0 mm 396 W/m2
09:52 16.8 °C 12.1 °C 1011.1 hPa SW 17.7 km/h 33.8 km/h 74 % 0 mm 413 W/m2
09:57 16.9 °C 12 °C 1011.1 hPa SW 17.7 km/h 37 km/h 73 % 0 mm 330 W/m2
10:02 16.9 °C 12 °C 1011.1 hPa SW 17.7 km/h 37 km/h 73 % 0 mm 297 W/m2
10:07 17 °C 12.3 °C 1011.1 hPa SW 14.5 km/h 29 km/h 74 % 0 mm 299 W/m2
10:12 17 °C 12.1 °C 1011.1 hPa SW 12.9 km/h 22.5 km/h 73 % 0 mm 288 W/m2
10:17 17 °C 12.1 °C 1011.1 hPa SW 16.1 km/h 24.1 km/h 73 % 0 mm 306 W/m2
10:22 17.1 °C 12 °C 1011.1 hPa SW 17.7 km/h 29 km/h 72 % 0 mm 455 W/m2
10:27 17.3 °C 12.2 °C 1011.1 hPa SW 19.3 km/h 33.8 km/h 72 % 0 mm 445 W/m2
10:32 17.6 °C 12.3 °C 1011.1 hPa SW 17.7 km/h 33.8 km/h 71 % 0 mm 824 W/m2
10:37 18 °C 12.7 °C 1011.4 hPa SW 17.7 km/h 33.8 km/h 71 % 0 mm 424 W/m2
10:42 18.1 °C 12.3 °C 1011.1 hPa SW 19.3 km/h 35.4 km/h 69 % 0 mm 411 W/m2
10:47 17.9 °C 12.1 °C 1011.1 hPa SW 20.9 km/h 38.6 km/h 69 % 0 mm 439 W/m2
10:52 18.1 °C 12.3 °C 1011.1 hPa SW 20.9 km/h 38.6 km/h 69 % 0 mm 1069 W/m2
10:57 18.3 °C 12.7 °C 1011.1 hPa SW 19.3 km/h 37 km/h 70 % 0 mm 424 W/m2
11:02 18.2 °C 12.2 °C 1011.1 hPa SW 19.3 km/h 37 km/h 68 % 0 mm 480 W/m2
11:07 18.2 °C 12.6 °C 1011.1 hPa SW 17.7 km/h 30.6 km/h 70 % 0 mm 577 W/m2
11:12 18.3 °C 12.5 °C 1011.1 hPa SW 17.7 km/h 38.6 km/h 69 % 0 mm 635 W/m2
11:17 18.2 °C 12.4 °C 1011.1 hPa SW 17.7 km/h 38.6 km/h 69 % 0 mm 316 W/m2
11:22 18.2 °C 12.2 °C 1011.1 hPa SW 17.7 km/h 30.6 km/h 68 % 0 mm 353 W/m2
11:27 18.3 °C 12.5 °C 1011.1 hPa SW 19.3 km/h 30.6 km/h 69 % 0 mm 1125 W/m2
11:29 18.4 °C 12.6 °C 1011.1 hPa SW 19.3 km/h 30.6 km/h 69 % 0 mm 1114 W/m2
11:34 18.6 °C 12.3 °C 1011.1 hPa WSW 19.3 km/h 30.6 km/h 67 % 0 mm 417 W/m2
11:39 18.6 °C 12.3 °C 1011.1 hPa WSW 17.7 km/h 30.6 km/h 67 % 0 mm 193 W/m2
11:44 18.2 °C 13.3 °C 1011.4 hPa SW 17.7 km/h 33.8 km/h 73 % 0 mm 309 W/m2
11:49 17.4 °C 13.7 °C 1011.4 hPa SW 17.7 km/h 33.8 km/h 79 % 0.25 mm 387 W/m2
11:54 17.1 °C 13.6 °C 1011.1 hPa SW 14.5 km/h 29 km/h 80 % 0.25 mm 248 W/m2
11:59 16.8 °C 13.3 °C 1011.1 hPa SSW 12.9 km/h 19.3 km/h 80 % 0.25 mm 339 W/m2
12:04 16.8 °C 13.3 °C 1011.1 hPa SSW 12.9 km/h 20.9 km/h 80 % 0.25 mm 381 W/m2
12:09 16.9 °C 13.6 °C 1011.1 hPa SSW 12.9 km/h 20.9 km/h 81 % 0.25 mm 355 W/m2
12:14 17.1 °C 13.2 °C 1011.1 hPa SSW 12.9 km/h 22.5 km/h 78 % 0.25 mm 323 W/m2
12:19 17.1 °C 13.4 °C 1011.1 hPa SSW 14.5 km/h 22.5 km/h 79 % 0.25 mm 399 W/m2
12:24 17.1 °C 12.8 °C 1011.1 hPa SW 14.5 km/h 24.1 km/h 76 % 0.25 mm 373 W/m2
12:29 17.1 °C 12.6 °C 1011.1 hPa SW 14.5 km/h 24.1 km/h 75 % 0.25 mm 406 W/m2
12:34 17.3 °C 12.6 °C 1011.1 hPa SW 14.5 km/h 22.5 km/h 74 % 0.25 mm 251 W/m2
12:39 17.3 °C 12.6 °C 1011.1 hPa SW 14.5 km/h 24.1 km/h 74 % 0.25 mm 225 W/m2
12:44 17.2 °C 12.3 °C 1011.1 hPa SW 16.1 km/h 30.6 km/h 73 % 0.25 mm 146 W/m2
12:49 17.1 °C 12.8 °C 1011.1 hPa SW 17.7 km/h 30.6 km/h 76 % 0 mm 104 W/m2
12:54 16.6 °C 12.9 °C 1011.1 hPa SW 17.7 km/h 29 km/h 79 % 0 mm 213 W/m2
12:59 15.9 °C 12.7 °C 1011.1 hPa SW 16.1 km/h 29 km/h 81 % 0 mm 339 W/m2
13:04 15.7 °C 12.8 °C 1011.1 hPa SW 12.9 km/h 20.9 km/h 83 % 0 mm 255 W/m2
13:09 15.6 °C 12.9 °C 1011.1 hPa SSW 9.7 km/h 19.3 km/h 84 % 0 mm 239 W/m2
13:14 15.4 °C 12.5 °C 1011.1 hPa SW 9.7 km/h 17.7 km/h 83 % 0 mm 223 W/m2
13:19 15.3 °C 12.2 °C 1011.1 hPa SW 9.7 km/h 17.7 km/h 82 % 0 mm 183 W/m2
13:24 15.4 °C 12.5 °C 1011.1 hPa SW 6.4 km/h 12.9 km/h 83 % 0 mm 113 W/m2
13:29 15.3 °C 12.4 °C 1011.1 hPa SW 4.8 km/h 11.3 km/h 83 % 0.25 mm 90 W/m2
13:34 15.3 °C 12.6 °C 1011.1 hPa South 6.4 km/h 14.5 km/h 84 % 0.25 mm 81 W/m2
13:39 15.2 °C 12.5 °C 1011.1 hPa South 6.4 km/h 14.5 km/h 84 % 0.25 mm 98 W/m2
13:44 15.2 °C 12.7 °C 1011.1 hPa South 4.8 km/h 12.9 km/h 85 % 0.25 mm 206 W/m2
13:49 15.2 °C 13.1 °C 1011.1 hPa SSE 3.2 km/h 9.7 km/h 87 % 0.25 mm 316 W/m2
13:54 15.4 °C 13.4 °C 1011.1 hPa South 3.2 km/h 9.7 km/h 88 % 0.25 mm 874 W/m2
13:59 15.8 °C 13.8 °C 1010.7 hPa SSW 1.6 km/h 11.3 km/h 88 % 0.25 mm 858 W/m2
14:04 16.4 °C 14.6 °C 1011.1 hPa WSW 4.8 km/h 12.9 km/h 89 % 0.25 mm 886 W/m2
14:09 16.8 °C 14.6 °C 1011.1 hPa WSW 8 km/h 16.1 km/h 87 % 0.25 mm 916 W/m2
14:14 17.3 °C 14.8 °C 1011.1 hPa WSW 8 km/h 16.1 km/h 85 % 0.25 mm 1079 W/m2
14:19 17.9 °C 15.3 °C 1011.1 hPa SW 9.7 km/h 20.9 km/h 85 % 0.25 mm 1194 W/m2
14:24 18.6 °C 14.5 °C 1011.1 hPa SW 14.5 km/h 29 km/h 77 % 0.25 mm 1194 W/m2
14:29 18.7 °C 13.8 °C 1011.1 hPa SW 16.1 km/h 29 km/h 73 % 0 mm 237 W/m2
14:34 18.6 °C 13.7 °C 1011.1 hPa SW 16.1 km/h 24.1 km/h 73 % 0 mm 118 W/m2
14:40 18.3 °C 13.6 °C 1011.1 hPa SW 14.5 km/h 24.1 km/h 74 % 0 mm 79 W/m2
14:44 18 °C 13.5 °C 1011.1 hPa SSW 12.9 km/h 25.7 km/h 75 % 0 mm 90 W/m2
14:49 17.7 °C 13.4 °C 1011.1 hPa SSW 12.9 km/h 25.7 km/h 76 % 0 mm 98 W/m2
14:54 17.6 °C 13.5 °C 1011.1 hPa SSW 12.9 km/h 22.5 km/h 77 % 0 mm 102 W/m2
15:00 17.4 °C 14.1 °C 1011.1 hPa SSW 12.9 km/h 22.5 km/h 81 % 0.25 mm 72 W/m2
15:05 17.1 °C 13.6 °C 1011.1 hPa SSW 12.9 km/h 25.7 km/h 80 % 0.25 mm 72 W/m2
15:10 16.8 °C 13.7 °C 1011.1 hPa SSW 14.5 km/h 25.7 km/h 82 % 0.25 mm 79 W/m2
15:15 16.5 °C 13.6 °C 1011.1 hPa SSW 12.9 km/h 25.7 km/h 83 % 0.25 mm 76 W/m2
15:20 16.3 °C 13.6 °C 1011.1 hPa SSW 14.5 km/h 25.7 km/h 84 % 0.25 mm 86 W/m2
15:25 16 °C 13.5 °C 1011.1 hPa SSW 12.9 km/h 22.5 km/h 85 % 0.51 mm 134 W/m2
15:30 15.8 °C 13.3 °C 1010.7 hPa SW 12.9 km/h 22.5 km/h 85 % 0.51 mm 223 W/m2
15:35 15.6 °C 13.3 °C 1010.7 hPa SW 11.3 km/h 22.5 km/h 86 % 0.51 mm 301 W/m2
15:40 15.6 °C 13.3 °C 1010.7 hPa SW 12.9 km/h 22.5 km/h 86 % 0.51 mm 236 W/m2
15:45 15.7 °C 13.4 °C 1010.7 hPa WSW 11.3 km/h 20.9 km/h 86 % 0.51 mm 287 W/m2
15:50 16 °C 14.2 °C 1010.7 hPa WSW 9.7 km/h 16.1 km/h 89 % 0.51 mm 956 W/m2
15:55 16.7 °C 14.7 °C 1010.7 hPa SW 11.3 km/h 24.1 km/h 88 % 0.51 mm 898 W/m2
16:00 16.9 °C 14.2 °C 1011.1 hPa SW 14.5 km/h 32.2 km/h 84 % 0.25 mm 315 W/m2
16:05 17 °C 13.9 °C 1010.7 hPa SW 16.1 km/h 32.2 km/h 82 % 0.25 mm 327 W/m2
16:10 17.1 °C 14 °C 1010.7 hPa WSW 14.5 km/h 25.7 km/h 82 % 0.25 mm 867 W/m2
16:15 17.4 °C 14.1 °C 1011.1 hPa WSW 14.5 km/h 25.7 km/h 81 % 0.25 mm 705 W/m2
16:20 17.7 °C 13.4 °C 1011.1 hPa WSW 14.5 km/h 30.6 km/h 76 % 0.25 mm 568 W/m2
16:25 17.8 °C 13.3 °C 1011.1 hPa WSW 14.5 km/h 30.6 km/h 75 % 0 mm 281 W/m2
16:30 17.9 °C 13.4 °C 1011.1 hPa WSW 14.5 km/h 24.1 km/h 75 % 0 mm 701 W/m2
16:35 18.3 °C 13.4 °C 1011.1 hPa WSW 16.1 km/h 29 km/h 73 % 0 mm 733 W/m2
16:36 18.3 °C 13.2 °C 1011.1 hPa WSW 14.5 km/h 29 km/h 72 % 0 mm 733 W/m2
16:41 18.3 °C 12.7 °C 1011.1 hPa WSW 16.1 km/h 29 km/h 70 % 0 mm 213 W/m2
16:46 18.1 °C 12.6 °C 1011.1 hPa WSW 14.5 km/h 24.1 km/h 70 % 0 mm 318 W/m2
16:51 18 °C 12.4 °C 1011.1 hPa SW 14.5 km/h 22.5 km/h 70 % 0 mm 220 W/m2
16:56 17.9 °C 12.3 °C 1011.1 hPa SW 14.5 km/h 32.2 km/h 70 % 0 mm 190 W/m2
17:01 17.8 °C 12.1 °C 1011.1 hPa WSW 16.1 km/h 32.2 km/h 69 % 0 mm 225 W/m2
17:06 17.8 °C 12.3 °C 1011.1 hPa WSW 14.5 km/h 25.7 km/h 70 % 0 mm 207 W/m2
17:11 17.8 °C 12.3 °C 1011.1 hPa WSW 12.9 km/h 24.1 km/h 70 % 0 mm 162 W/m2
17:16 17.7 °C 12.6 °C 1011.1 hPa WSW 12.9 km/h 24.1 km/h 72 % 0 mm 144 W/m2
17:21 17.7 °C 12.6 °C 1011.1 hPa WSW 12.9 km/h 20.9 km/h 72 % 0 mm 141 W/m2
17:26 17.7 °C 13.2 °C 1011.1 hPa WSW 12.9 km/h 25.7 km/h 75 % 0.25 mm 272 W/m2
17:31 17.3 °C 13 °C 1011.1 hPa WSW 16.1 km/h 30.6 km/h 76 % 0.25 mm 287 W/m2
17:36 17 °C 13.3 °C 1011.1 hPa SW 17.7 km/h 30.6 km/h 79 % 0.25 mm 338 W/m2
17:41 16.9 °C 13.6 °C 1010.7 hPa SW 12.9 km/h 20.9 km/h 81 % 0.25 mm 510 W/m2
17:46 16.9 °C 13.4 °C 1010.7 hPa SW 12.9 km/h 20.9 km/h 80 % 0.25 mm 176 W/m2
17:51 16.9 °C 13.2 °C 1010.7 hPa SW 14.5 km/h 22.5 km/h 79 % 0.25 mm 199 W/m2
17:56 16.9 °C 13.1 °C 1011.1 hPa SW 12.9 km/h 22.5 km/h 78 % 0.25 mm 109 W/m2
18:01 16.8 °C 12.7 °C 1011.1 hPa SW 11.3 km/h 19.3 km/h 77 % 0.25 mm 167 W/m2
18:06 16.9 °C 12.8 °C 1011.1 hPa SW 14.5 km/h 25.7 km/h 77 % 0.25 mm 459 W/m2
18:11 17 °C 12.9 °C 1011.1 hPa SW 16.1 km/h 30.6 km/h 77 % 0.25 mm 178 W/m2
18:16 16.9 °C 12.4 °C 1011.1 hPa SW 19.3 km/h 32.2 km/h 75 % 0.25 mm 473 W/m2
18:21 16.9 °C 12.4 °C 1011.1 hPa SW 17.7 km/h 32.2 km/h 75 % 0.25 mm 459 W/m2
18:26 16.9 °C 12.2 °C 1011.1 hPa SW 17.7 km/h 32.2 km/h 74 % 0 mm 357 W/m2
18:31 17 °C 12.6 °C 1011.1 hPa SW 17.7 km/h 30.6 km/h 75 % 0 mm 308 W/m2
18:36 17.2 °C 12.5 °C 1011.4 hPa WSW 16.1 km/h 25.7 km/h 74 % 0 mm 292 W/m2
18:41 17.3 °C 12.8 °C 1011.1 hPa SW 12.9 km/h 22.5 km/h 75 % 0 mm 301 W/m2
18:46 17.3 °C 12.8 °C 1011.1 hPa SW 12.9 km/h 20.9 km/h 75 % 0 mm 318 W/m2
18:51 17.3 °C 12.8 °C 1011.1 hPa SW 14.5 km/h 29 km/h 75 % 0 mm 313 W/m2
18:57 17.4 °C 12.9 °C 1011.1 hPa SW 16.1 km/h 29 km/h 75 % 0 mm 297 W/m2
19:02 17.6 °C 13.1 °C 1011.1 hPa SW 16.1 km/h 25.7 km/h 75 % 0 mm 285 W/m2
19:07 17.5 °C 13 °C 1011.1 hPa SW 16.1 km/h 25.7 km/h 75 % 0 mm 237 W/m2
19:12 17.4 °C 13.1 °C 1011.1 hPa SW 16.1 km/h 24.1 km/h 76 % 0 mm 199 W/m2
19:17 17.4 °C 13.1 °C 1011.1 hPa SW 14.5 km/h 22.5 km/h 76 % 0 mm 102 W/m2
19:22 17.3 °C 13.2 °C 1011.1 hPa SW 14.5 km/h 22.5 km/h 77 % 0 mm 214 W/m2
19:27 17.3 °C 13.2 °C 1011.4 hPa SW 11.3 km/h 17.7 km/h 77 % 0 mm 202 W/m2
19:32 17.3 °C 13.2 °C 1011.4 hPa SW 9.7 km/h 17.7 km/h 77 % 0 mm 127 W/m2
19:37 17.2 °C 13.1 °C 1011.4 hPa SW 9.7 km/h 19.3 km/h 77 % 0 mm 84 W/m2
19:42 17.3 °C 13.2 °C 1011.4 hPa SW 9.7 km/h 19.3 km/h 77 % 0 mm 167 W/m2
19:47 17.4 °C 13.5 °C 1011.4 hPa SW 11.3 km/h 19.3 km/h 78 % 0 mm 148 W/m2
19:52 17.4 °C 13.5 °C 1011.4 hPa SW 11.3 km/h 19.3 km/h 78 % 0 mm 113 W/m2
19:57 17.3 °C 13.2 °C 1011.4 hPa SW 9.7 km/h 16.1 km/h 77 % 0 mm 77 W/m2
20:02 17.3 °C 13.2 °C 1011.4 hPa SW 9.7 km/h 14.5 km/h 77 % 0 mm 98 W/m2
20:07 17.2 °C 13.1 °C 1011.7 hPa SW 9.7 km/h 14.5 km/h 77 % 0 mm 51 W/m2
20:12 17.1 °C 13.1 °C 1011.7 hPa SW 8 km/h 14.5 km/h 77 % 0 mm 44 W/m2
20:17 17 °C 12.9 °C 1011.7 hPa SW 8 km/h 12.9 km/h 77 % 0 mm 44 W/m2
20:22 16.9 °C 13.1 °C 1011.7 hPa SW 8 km/h 12.9 km/h 78 % 0 mm 39 W/m2
20:27 16.8 °C 12.9 °C 1011.7 hPa SW 6.4 km/h 12.9 km/h 78 % 0 mm 32 W/m2
20:32 16.7 °C 12.8 °C 1011.7 hPa WSW 8 km/h 14.5 km/h 78 % 0 mm 26 W/m2
20:37 16.6 °C 12.9 °C 1011.7 hPa WSW 8 km/h 14.5 km/h 79 % 0 mm 23 W/m2
20:42 16.5 °C 12.8 °C 1012.1 hPa WSW 6.4 km/h 12.9 km/h 79 % 0 mm 18 W/m2
20:48 16.3 °C 12.8 °C 1012.1 hPa WSW 4.8 km/h 9.7 km/h 80 % 0 mm 12 W/m2
20:53 16.2 °C 12.7 °C 1012.1 hPa WSW 1.6 km/h 8 km/h 80 % 0 mm 9 W/m2
20:58 16.1 °C 12.7 °C 1012.1 hPa WSW 1.6 km/h 6.4 km/h 80 % 0 mm 5 W/m2
21:03 15.9 °C 12.7 °C 1012.1 hPa WSW 1.6 km/h 6.4 km/h 81 % 0 mm 5 W/m2
21:07 15.9 °C 12.7 °C 1012.1 hPa Calm   4.8 km/h 81 % 0 mm 5 W/m2
21:08 15.9 °C 12.7 °C 1012.1 hPa Calm   4.8 km/h 81 % 0 mm 5 W/m2
21:12 15.8 °C 12.6 °C 1012.1 hPa Calm   3.2 km/h 81 % 0 mm 0 W/m2
21:18 15.7 °C 12.4 °C 1012.1 hPa WSW 1.6 km/h 8 km/h 81 % 0 mm 0 W/m2
21:23 15.6 °C 12.3 °C 1012.1 hPa WSW 3.2 km/h 8 km/h 81 % 0 mm 0 W/m2
21:28 15.5 °C 12.3 °C 1012.1 hPa WSW 1.6 km/h 8 km/h 81 % 0 mm 0 W/m2
21:33 15.4 °C 12.2 °C 1012.1 hPa WSW 1.6 km/h 6.4 km/h 81 % 0 mm 0 W/m2
21:38 15.3 °C 12.1 °C 1012.1 hPa WSW 1.6 km/h 6.4 km/h 81 % 0 mm 0 W/m2
21:43 15.3 °C 12.1 °C 1012.1 hPa WSW 1.6 km/h 6.4 km/h 81 % 0 mm 0 W/m2
21:48 15.1 °C 11.9 °C 1012.1 hPa Calm   6.4 km/h 81 % 0 mm 0 W/m2
21:53 15 °C 11.9 °C 1012.1 hPa Calm   3.2 km/h 82 % 0 mm 0 W/m2
21:58 14.8 °C 11.8 °C 1012.1 hPa Calm   3.2 km/h 82 % 0 mm 0 W/m2
22:03 14.7 °C 11.7 °C 1012.1 hPa Calm     82 % 0 mm 0 W/m2
22:08 14.6 °C 11.6 °C 1012.4 hPa Calm     82 % 0 mm 0 W/m2
22:13 14.4 °C 11.6 °C 1012.4 hPa Calm     83 % 0 mm 0 W/m2
22:18 14.2 °C 11.6 °C 1012.4 hPa Calm     84 % 0 mm 0 W/m2
22:23 14.1 °C 11.4 °C 1012.4 hPa Calm   6.4 km/h 84 % 0 mm 0 W/m2
22:28 13.9 °C 11.4 °C 1012.4 hPa Calm   6.4 km/h 85 % 0 mm 0 W/m2
22:33 13.9 °C 11.4 °C 1012.4 hPa Calm   3.2 km/h 85 % 0 mm 0 W/m2
22:38 13.8 °C 11.5 °C 1012.4 hPa Calm     86 % 0 mm 0 W/m2
22:43 13.8 °C 11.5 °C 1012.4 hPa Calm     86 % 0 mm 0 W/m2
22:48 13.8 °C 11.5 °C 1012.4 hPa Calm     86 % 0 mm 0 W/m2
22:53 13.8 °C 11.5 °C 1012.4 hPa Calm   3.2 km/h 86 % 0 mm 0 W/m2
22:58 13.8 °C 11.7 °C 1012.4 hPa Calm   4.8 km/h 87 % 0 mm 0 W/m2
23:03 13.7 °C 11.6 °C 1012.4 hPa Calm   4.8 km/h 87 % 0 mm 0 W/m2
23:08 13.7 °C 11.6 °C 1012.4 hPa WSW 1.6 km/h 4.8 km/h 87 % 0 mm 0 W/m2
23:13 13.7 °C 11.6 °C 1012.4 hPa WSW 1.6 km/h 3.2 km/h 87 % 0 mm 0 W/m2
23:18 13.6 °C 11.5 °C 1012.4 hPa WSW 1.6 km/h 9.7 km/h 87 % 0 mm 0 W/m2
23:23 13.5 °C 11.4 °C 1012.4 hPa WSW 3.2 km/h 9.7 km/h 87 % 0 mm 0 W/m2
23:28 13.4 °C 11.3 °C 1012.4 hPa WSW 3.2 km/h 8 km/h 87 % 0 mm 0 W/m2
23:33 13.4 °C 11.3 °C 1012.4 hPa WSW 1.6 km/h 8 km/h 87 % 0 mm 0 W/m2
23:38 13.3 °C 11.2 °C 1012.4 hPa Calm   4.8 km/h 87 % 0 mm 0 W/m2
23:44 13.2 °C 11.3 °C 1012.4 hPa Calm   4.8 km/h 88 % 0 mm 0 W/m2
23:48 13.2 °C 11.3 °C 1012.4 hPa Calm   3.2 km/h 88 % 0 mm 0 W/m2
23:54 13.2 °C 11.3 °C 1012.4 hPa Calm   1.6 km/h 88 % 0 mm 0 W/m2
23:59 13.2 °C 11.4 °C 1012.4 hPa Calm   3.2 km/h 89 % 0 mm 0 W/m2
Delerius-Weather
Compliments of Weather Underground - 2.25 mb

Data updates at regular intervals.